Hlavní strana
METAR-TAF:

METAR-TAF

Letiště :

Fairhope, Alabama, Spojené státy americké

zeměpisná šířka: 30-27-38N, zeměpisná délka: 087-52-37W, výška: 28 m

Aktuální stav počasí

Zpráva byla vytvořena před 21 minutami, v 17:35 UTC
Severozápadní vítr 9 kt s nárazy do 15 kt
Teplota 13°C
Vlhkost vzduchu 47%
Tlak 1021 hPa
Viditelnost: 16.1 km
Jasno

METAR: KCQF 151735Z AUTO 32009G15KT 10SM CLR 13/02 A3014 RMK AO2

Čas: 11:56 (17:56 UTC)


TAF: chybějící

Stav a předpovědi počasí z více než 4 000 letišť (zprávy METAR a TAF).

Červené a žluté tečky na mapě představují dostupné meteorologické stanice.

Když kurzor umístíte na tečku, zobrazí se název stanice.

Pak kliknutím zobrazíte stav a předpověď počasí.

Chcete-li změnit mapu, kliknutím na zelené tlačítko se znaménkem +mapu přiblížíte, kliknutím na zelené tlačítko se znaménkem – mapu oddálíte a kliknutím na zelené šipky přejdete na sousední mapy.


METAR-TAF: